GFSFLT2_250_rhum_057.txt.gz
RH
99 97 100 90 98 100 100 100 100 100 100 97 95 82 99 89 66 100 100 100 81 100 99 66 100 100 84 75 67 55 46 39
100 100 88 100 100 100 100 100 100 100 100 100 74 100 100 100 100 91 84 90 100 100 100 100 92 91 78 69 63 51 40 32
100 100 100 99 100 100 100 100 100 100 98 98 88 100 100 100 90 99 100 100 97 100 96 92 89 84 76 72 56 42 37 32
100 100 97 100 100 100 100 100 100 100 100 100 100 100 100 100 100 88 100 100 100 99 97 91 92 80 70 52 45 46 34 24
100 100 100 100 100 100 100 100 100 100 100 100 100 100 97 100 100 100 100 100 100 100 95 86 94 81 56 58 49 34 29 28
99 100 100 100 100 100 100 97 100 100 100 100 100 100 100 100 100 100 100 100 100 94 78 78 70 56 46 40 46 47 46 43
98 98 100 100 100 100 100 100 100 100 100 100 100 100 100 100 100 100 99 100 97 88 85 60 50 49 46 48 45 57 96 99
100 100 100 100 100 100 100 100 100 94 100 100 100 100 100 100 100 99 87 74 63 43 32 33 49 58 59 60 45 51 57 68
100 100 100 100 100 100 98 85 100 80 89 99 100 100 100 100 90 70 63 49 35 29 24 32 32 56 78 78 91 91 92 91
100 100 100 100 100 100 98 100 100 100 100 100 100 99 89 76 63 48 31 28 26 37 46 47 56 38 48 53 56 47 53 48
100 100 100 100 100 100 100 100 100 100 94 91 86 71 56 42 36 29 26 27 29 31 34 29 27 25 26 27 29 30 31 31
100 100 100 98 83 86 91 88 97 96 86 74 57 50 34 28 27 26 26 25 25 27 29 34 34 28 30 34 33 33 34 37
89 95 100 100 98 100 100 95 84 70 62 49 36 27 25 24 24 25 28 33 38 46 49 48 45 45 48 51 50 50 49 53
96 95 100 100 100 91 78 70 59 49 40 28 25 23 25 28 33 40 47 52 58 61 64 63 63 58 54 48 46 52 47 50
100 96 96 88 74 64 60 50 37 26 25 23 24 29 35 39 44 47 51 53 56 60 61 57 51 52 54 52 52 51 52 65
93 85 77 65 58 46 34 27 25 23 23 32 38 39 42 42 41 45 44 47 54 54 56 59 63 64 65 70 75 71 71 72
68 64 52 41 29 26 26 25 23 30 40 43 44 39 40 42 40 40 43 49 60 61 63 68 76 74 68 65 60 61 63 62
35 32 25 25 27 25 24 26 30 37 38 34 32 30 29 30 34 44 46 50 55 55 55 58 60 60 53 53 54 56 53 51
27 31 30 28 27 26 28 31 34 34 32 33 33 35 34 33 38 44 50 57 54 51 55 57 56 55 60 57 58 61 56 51
31 30 31 34 32 33 36 40 38 35 37 34 36 45 42 46 49 52 59 59 54 59 65 59 60 67 69 71 66 59 53 45

GFSFLT2_250_rhum_060.txt.gz
RH
100 87 100 100 100 100 100 99 80 100 100 100 100 100 100 100 100 99 73 82 88 100 100 85 69 66 95 99 93 92 84 76
100 100 100 85 100 100 100 100 100 100 100 100 100 100 100 100 94 64 100 100 100 96 92 88 100 100 100 100 81 97 91 92
100 100 100 100 100 100 100 100 100 100 100 100 90 89 97 77 100 100 100 99 100 100 81 98 100 100 98 88 94 100 79 78
100 100 100 100 100 100 100 100 100 100 90 97 100 88 100 100 100 100 100 100 97 100 100 100 100 92 100 97 85 76 64 51
100 100 100 100 100 100 100 100 100 99 100 100 100 100 100 98 100 100 99 100 100 100 100 100 100 100 94 77 79 62 38 28
100 99 91 100 100 100 100 94 98 100 76 92 100 100 100 100 100 100 100 100 100 100 100 100 96 83 63 43 35 31 31 33
98 98 100 100 100 100 100 100 100 100 100 100 100 100 100 100 100 99 99 100 100 100 94 82 71 52 36 28 25 27 30 28
100 100 96 92 100 98 100 93 99 100 100 95 100 100 100 100 100 100 100 100 100 92 66 50 35 30 30 28 27 26 25 26
100 100 100 100 100 100 100 100 100 100 100 100 92 98 100 100 100 100 100 92 74 53 45 33 26 24 24 25 27 26 28 28
100 100 100 100 100 100 100 100 98 98 100 100 100 100 100 100 100 93 80 62 53 36 26 25 27 30 35 37 39 39 38 37
100 100 100 100 96 96 98 100 100 100 100 100 100 100 100 94 87 76 59 41 27 25 25 31 42 44 46 49 50 50 49 50
100 100 100 100 100 100 100 100 99 92 92 99 99 96 83 68 56 43 29 25 29 32 35 43 42 41 43 48 51 54 56 61
100 100 100 87 79 82 82 66 73 92 100 98 85 69 51 35 28 26 27 28 33 35 37 39 36 39 45 50 51 54 59 66
60 64 69 76 88 91 89 91 96 90 84 74 56 46 28 26 28 32 35 36 35 34 34 34 39 40 44 51 53 52 57 67
100 92 87 100 100 99 100 94 80 56 44 36 29 27 27 30 34 36 34 34 34 32 32 35 40 43 48 46 44 52 65 76
98 100 100 99 92 84 73 58 45 37 30 28 28 29 33 36 37 35 32 31 33 36 40 39 38 40 48 52 56 63 67 70
92 96 76 67 60 47 41 36 33 30 29 28 27 29 31 33 34 36 40 40 37 36 36 40 45 56 56 60 64 63 65 65
75 54 43 39 37 32 32 34 30 29 29 31 33 34 37 35 32 42 43 40 42 45 47 48 54 54 56 60 62 63 64 65
47 36 30 30 33 35 33 29 30 33 34 35 35 31 30 27 28 32 39 40 40 39 43 49 47 53 57 59 68 71 68 63
31 39 42 40 34 31 32 33 33 37 36 32 28 27 27 31 38 43 45 43 43 49 49 53 55 61 64 69 73 66 65 64

GFSFLT2_250_rhum_063.txt.gz
RH
95 100 97 100 100 99 100 100 100 100 100 100 100 100 100 100 100 100 100 93 93 97 96 76 79 93 100 100 86 83 82 73
100 99 100 100 96 99 100 100 100 100 100 100 100 100 100 100 100 92 84 98 82 79 83 77 100 100 100 84 84 72 100 78
100 100 100 100 100 99 100 100 100 100 100 100 100 95 100 100 100 97 100 100 82 100 100 93 100 92 80 83 100 98 100 92
100 100 100 100 96 100 100 100 100 100 100 93 100 100 100 100 92 100 100 100 100 100 100 100 99 100 100 100 100 100 93 85
100 100 100 100 100 100 100 100 100 100 100 100 98 100 97 100 100 98 100 92 100 98 100 100 100 100 100 97 91 80 68 50
100 100 100 100 100 100 100 100 100 100 96 100 100 100 100 100 98 100 100 100 99 88 100 88 100 100 100 88 72 46 38 32
96 100 97 100 100 100 100 100 100 100 100 100 100 100 100 85 100 100 100 98 92 100 100 100 100 93 86 53 34 30 32 36
96 100 100 100 100 100 100 100 100 100 100 100 100 100 97 88 88 90 90 89 97 100 100 100 81 72 52 41 30 33 31 36
93 100 100 100 100 100 99 100 100 100 94 91 83 68 60 97 100 90 100 100 100 100 95 85 70 57 37 26 29 32 36 37
100 100 100 100 92 100 100 100 99 100 100 100 100 100 100 100 86 89 90 100 95 86 64 48 33 27 32 33 36 38 36 33
100 98 100 100 100 100 96 95 95 100 100 93 100 100 91 71 83 99 100 100 74 52 37 28 28 31 35 35 35 34 32 32
99 100 98 97 100 97 98 100 100 100 100 82 83 84 83 80 99 100 83 68 51 32 27 30 32 35 36 35 32 31 34 36
100 100 100 100 98 100 100 96 90 100 94 74 79 93 100 100 85 63 36 30 27 29 34 36 37 34 32 31 35 41 39 40
100 100 100 100 100 94 100 98 100 83 67 80 85 100 92 79 46 35 31 30 31 33 35 35 34 34 36 38 40 45 47 48
97 85 75 95 85 68 70 70 61 81 93 84 73 68 43 38 35 32 29 30 29 31 31 32 34 36 44 44 40 41 48 49
82 99 68 84 90 96 89 86 83 68 54 44 38 38 37 34 31 29 29 31 32 30 29 32 38 47 51 49 49 49 49 48
100 100 100 99 83 84 67 46 39 37 37 36 38 36 33 30 29 28 29 32 34 43 48 50 50 51 53 49 55 61 65 67
91 91 86 77 65 54 36 35 40 42 41 38 36 32 32 32 32 35 38 39 44 46 48 48 50 53 51 56 63 65 61 60
71 88 79 71 36 35 35 41 44 42 37 37 37 36 39 45 48 49 47 51 51 51 50 49 49 48 59 61 61 62 63 72
72 71 89 36 28 36 44 46 42 41 40 37 42 46 48 49 45 45 42 44 50 53 49 48 51 60 61 62 66 68 76 72

GFSFLT2_250_rhum_069.txt.gz
RH
98 91 100 100 96 90 84 56 76 79 91 88 98 100 92 100 100 100 98 98 87 72 74 74 85 86 72 48 47 61 72 52
100 100 100 100 88 92 100 100 91 100 100 97 100 100 100 100 100 100 100 100 92 100 93 85 96 74 41 57 69 71 82 99
100 92 100 100 93 100 100 100 100 100 100 100 100 100 100 100 100 100 100 100 98 99 93 97 96 55 74 100 96 72 80 59
100 100 100 84 100 100 100 100 100 100 100 100 100 100 100 94 99 91 93 100 100 96 100 79 81 92 85 88 96 72 58 56
94 100 100 99 100 100 100 100 100 88 100 100 91 91 92 93 96 100 94 89 91 80 100 69 96 91 90 80 83 69 63 74
100 88 99 100 100 100 100 100 100 100 100 100 100 100 100 100 100 100 100 100 100 97 97 100 98 86 65 62 85 86 67 90
100 100 100 100 100 100 100 100 100 100 100 100 100 100 99 95 100 100 88 100 86 99 100 99 82 69 57 68 71 82 80 77
88 100 100 100 100 100 100 100 100 100 100 96 96 99 100 100 100 100 94 75 79 94 94 78 62 65 91 91 90 90 69 48
100 100 100 100 100 100 100 100 100 100 100 100 100 86 97 94 65 58 79 83 90 75 75 51 75 83 100 90 96 72 32 30
100 100 100 100 100 98 100 100 100 100 100 100 100 100 100 100 100 87 99 99 68 67 48 85 100 100 93 91 53 31 32 34
100 100 100 100 100 100 100 100 100 100 100 100 100 100 100 86 100 90 68 74 81 55 99 100 100 93 56 34 30 32 34 36
100 100 100 100 100 100 100 100 100 100 100 93 96 99 66 78 66 74 95 96 86 100 96 90 64 35 31 31 35 37 36 40
96 100 100 100 100 100 100 85 75 96 86 56 76 90 97 86 98 91 93 100 100 89 61 43 31 31 33 36 36 42 45 47
98 89 93 93 86 74 60 59 54 67 81 100 100 100 100 100 98 100 96 73 62 39 32 29 31 34 37 40 43 46 46 52
68 58 49 58 55 74 85 90 97 99 97 100 100 94 88 80 98 93 50 42 36 33 32 34 39 41 39 39 43 47 56 62
48 56 63 80 92 97 100 100 100 100 100 100 85 94 79 63 51 44 40 35 34 36 39 45 48 38 44 48 51 56 59 64
100 100 100 100 87 97 91 100 97 98 89 75 66 64 75 76 51 37 37 35 38 42 46 42 37 48 55 54 61 66 64 64
100 100 100 100 100 100 100 98 95 77 70 73 69 95 99 54 41 40 38 44 44 41 41 40 46 54 54 59 60 63 62 53
100 100 100 100 100 100 93 84 91 77 81 92 99 100 58 46 49 48 49 46 46 38 35 44 45 49 54 60 64 58 53 56
100 100 100 100 92 81 71 68 100 86 100 100 98 56 54 56 56 55 56 47 40 39 47 44 52 52 57 59 60 60 64 60

GFSFLT2_250_rhum_072.txt.gz
RH
70 75 92 98 100 95 68 46 42 38 40 66 59 52 57 82 85 98 76 99 100 99 90 95 92 100 96 79 81 69 59 48
100 100 100 100 100 100 100 78 78 72 89 96 90 100 100 100 100 100 100 99 100 100 100 100 99 99 93 87 65 54 48 50
100 100 100 100 100 95 100 98 100 100 100 100 100 100 100 100 100 100 100 100 100 100 100 100 100 97 60 48 56 68 81 81
100 100 100 100 99 100 100 91 99 96 100 100 100 100 100 100 100 100 100 100 100 97 93 100 90 52 70 100 100 100 100 93
100 100 97 100 96 100 96 100 100 100 100 100 100 100 100 91 100 94 98 100 100 100 93 99 71 65 58 74 66 94 100 61
100 100 100 100 100 100 100 100 100 100 100 100 100 100 100 100 100 100 98 99 96 79 99 70 63 52 61 71 82 71 59 50
100 90 100 100 100 100 100 100 100 100 100 100 100 95 84 100 100 100 100 97 97 88 86 69 69 73 76 87 64 46 52 78
100 100 100 100 100 100 100 100 100 100 100 100 100 100 100 98 99 100 93 86 100 85 76 72 82 93 99 70 77 63 97 93
100 100 100 100 100 100 100 100 100 100 100 100 100 100 100 100 100 94 87 100 100 99 99 100 100 100 96 62 84 78 82 73
100 100 100 100 100 100 100 100 100 100 100 100 100 100 99 94 94 66 73 84 100 100 96 78 96 84 68 97 90 80 56 44
89 100 100 100 100 100 100 100 100 100 100 100 100 92 87 84 81 84 100 100 90 82 94 99 100 100 100 86 70 55 34 30
100 100 100 100 100 100 100 100 100 100 99 100 100 95 93 82 98 97 72 93 99 100 100 81 96 100 70 46 36 31 30 34
100 100 100 100 100 100 100 100 100 98 100 100 100 100 82 83 99 74 100 100 100 97 65 90 89 47 41 38 32 30 30 36
100 100 100 100 100 100 100 100 100 100 100 100 90 65 60 55 80 96 100 100 96 93 75 57 46 41 38 32 29 29 38 44
92 83 85 94 100 100 97 99 99 88 87 73 58 51 77 100 100 100 98 95 79 66 70 51 42 39 36 34 36 37 39 41
95 78 66 61 63 76 60 52 46 42 41 84 100 85 88 100 94 87 75 70 68 84 61 43 40 35 39 45 45 49 48 53
50 63 74 64 46 53 38 55 85 100 100 98 69 58 66 86 79 68 74 67 83 67 45 44 44 45 47 49 50 49 54 51
79 77 92 100 100 100 100 100 94 98 97 98 99 94 89 73 64 77 97 90 82 51 47 47 48 54 53 47 45 49 45 48
100 100 100 88 76 85 94 100 100 100 100 100 78 74 70 80 99 100 100 86 58 55 56 54 53 45 41 48 52 51 53 54
76 94 99 100 100 100 100 100 100 100 98 86 81 77 96 100 100 100 81 60 62 61 57 54 60 52 50 55 56 55 63 70